Regional Weather Roundup
Issued by NWS

Home | Current Version | Previous Version | Graphics & Text | Print | Product List | Glossary Off
Versions: 1 2 3 4 5 6 7 8 9 10 11 12 13 14 15 16 17 18 19 20 21 22 23 24 25 26 27 28 29 30 31 32 33 34 35 36 37 38 39 40 41 42 43 44 45 46 47 48 49 50

000
ASUS43 KDTX 241310
RWRMI
MICHIGAN HOURLY REGIONAL WEATHER ROUNDUP
NATIONAL WEATHER SERVICE DETROIT/PONTIAC MI
900 AM EDT FRI OCT 24 2014

NOTE: "FAIR" INDICATES FEW OR NO CLOUDS BELOW 12,000 FEET WITH NO
SIGNIFICANT WEATHER AND/OR OBSTRUCTION TO VISIBILITY.

MIZ047>049-052>055-059>063-066>070-074>076-081>083-241400-
SOUTHEAST LOWER MICHIGAN

CITY           SKY/WX    TMP DP  RH WIND       PRES   REMARKS
ADRIAN         CLEAR     36  35  96 CALM      30.10R FOG
ALMA           CLOUDY    45  41  88 S5        30.05F FOG
ANN ARBOR      PTCLDY    33  29  85 CALM      30.09R
BAD AXE          N/A     34  34 100 CALM      30.07R FOG
CARO           PTCLDY    32  32  99 CALM      30.07R FOG
DETROIT CITY   SUNNY     41  37  86 CALM      30.10R
DETROIT        MOSUNNY   39  37  92 CALM      30.10R FOG
FLINT          CLOUDY    40  37  89 CALM      30.08R
GROSSE ILE     SUNNY     39  37  93 CALM      30.08S
HILLSDALE      PTCLDY    42  42 100 CALM      30.07S FOG
HOWELL         CLOUDY    42  40  94 CALM      30.08R FOG

CITY           SKY/WX    TMP DP  RH WIND       PRES   REMARKS
JACKSON        CLOUDY    41  39  93 CALM      30.07S
LAMBERTVILLE   SUNNY     41  37  87 CALM      30.10S FOG
LANSING        CLOUDY    46  41  82 S3        30.08R HAZE
LAPEER         CLOUDY    34  33  99 CALM      30.07R
MASON          CLOUDY    42  40  91 CALM      30.08R FOG
MONROE         SUNNY     36  36 100 CALM      30.08S FOG
MT. CLEMENS    MOSUNNY   36  35  99 CALM      30.06R
PONTIAC        PTCLDY    38  34  85 W3        30.07R
PORT HOPE        N/A     43  37  79 SW6       30.04R
PORT HURON     SUNNY     32  32 100 CALM      30.08R FOG
TRI CITIES     CLOUDY    43  39  86 SE5       30.06S
TROY           MOSUNNY   41  36  83 CALM      30.10R
SAGINAW HB     MOCLDY    41  41 100 CALM      30.06S FOG
$$
MIZ043>046-050>051-056>058-064>065-071>073-077>080-241400-
SOUTHWEST LOWER MICHIGAN

CITY           SKY/WX    TMP DP  RH WIND       PRES   REMARKS
BATTLE CREEK   CLOUDY    49  42  77 S3        30.07R
BENTON HARBOR  PTCLDY    48  43  82 S3        30.06S
BIG RAPIDS     CLOUDY    46  46 100 CALM      30.02S FOG
COLDWATER      CLOUDY    48  43  82 SW3       30.07R
FREMONT        CLOUDY    49  46  92 CALM      30.03R
HOLLAND        CLOUDY    52  46  80 CALM      30.06R
GRAND RAPIDS   CLOUDY    51  44  77 S6        30.06R
IONIA          CLOUDY    48  43  84 CALM      30.05S
KALAMAZOO      CLOUDY    50  44  80 SW5       30.08R HAZE
LUDINGTON      CLOUDY    52  50  94 CALM      30.04R FOG
MARSHALL       CLOUDY    44  42  90 CALM      30.07R
MOUNT PLEASANT CLOUDY    45  42  89 CALM      30.04R FOG
MUSKEGON       CLOUDY    54  48  80 W6        30.05R
SOUTH HAVEN    CLOUDY    53  47  81 S3        30.06R
$$
MIZ016>042-241400-
NORTHERN LOWER MICHIGAN

CITY           SKY/WX    TMP DP  RH WIND       PRES   REMARKS
ALPENA         CLOUDY    43  40  89 SW3       30.03R
BEAVER ISLAND  CLOUDY    51  50  95 SW5       30.00R FOG
BELLAIRE       CLOUDY    49  46  86 CALM      30.02R
CADILLAC       CLOUDY    47  46  96 CALM      30.02R
CHARLEVOIX     CLOUDY    51  48  90 S3        30.03S
FRANKFORT      CLOUDY    52  49  90 CALM      30.01S FOG
GAYLORD        CLOUDY    46  42  86 CALM      30.01S
GRAYLING       CLOUDY    44  41  91 CALM      30.03S
HARBOR SPRINGS CLOUDY    47  43  87 CALM      30.01R
HOUGHTON LAKE  CLOUDY    43  41  93 CALM      30.04R
OSCODA         MOCLDY    41  41  97 SW3       30.03S FOG
PELLSTON       CLOUDY    45  42  89 CALM      30.01S
TRAVERSE CITY  CLOUDY    50  47  89 VRB3      30.00S FOG
$$
MIZ007>008-015-241400-
EASTERN UPPER MICHIGAN

CITY           SKY/WX    TMP DP  RH WIND       PRES   REMARKS
KINROSS        CLOUDY    45  45 100 S5        30.00R
MACKINAC ISLAN CLOUDY    49  44  84 S6        30.00R
NEWBERRY       CLOUDY    47  46  97 SW8       29.98S
S. S. MARIE    CLOUDY    43  42  97 CALM      30.00R FOG
MUNISING         N/A     47  44  90 SW3       29.98R
$$
MIZ004>006-011>014-085-241400-
CENTRAL UPPER MICHIGAN

CITY           SKY/WX    TMP DP  RH WIND       PRES   REMARKS
MANISTIQUE     CLOUDY    48  47  99 CALM      29.99R FOG
ESCANABA       CLOUDY    45  43  93 W7        30.00R
MENOMINEE      CLOUDY    46  45  93 W5        30.01R
SAWYER-GWINN   FOG       43  41  93 S5        29.97S VSB 0
$$
MIZ001>003-009>011-084-241400-
WESTERN UPPER MICHIGAN

CITY           SKY/WX    TMP DP  RH WIND       PRES   REMARKS
IRON MOUNTAIN  FOG       43  42  97 SW7       29.98S VSB 1/4
HOUGHTON       FOG       45  43  93 S7        29.92S VSB<1/4
COPPER HARBOR    N/A     47  45  93 SW8G18    29.92F
IRONWOOD       CLOUDY    46  46 100 S9        29.90S
$$

ABBREVIATIONS USED IN REMARKS
   TC - TEMPERATURE IN CELSIUS
  WCI - WIND CHILL INDEX
   HX - HEAT INDEX
  VSB - VISIBILITY




USA.gov is the U.S. government's official web portal to all federal, state and local government web resources and services.